TITAN 3C TRANSTAGE DEB, 2050

Orbit data source: Space-Track

TITAN 3C TRANSTAGE DEB, 2050 is space debris in LEO originally from a launch on Fri, 15 Oct 1965 UTC launched from the Air Force Eastern Test Range (AFETR). Debris objects in space refer to the collection of defunct objects orbiting the Earth. Examples of debris include non-operational satellites, rocket bodies, and fragments generated from explosions, collisions, or faulty payload assembly.

Loading next visibility...
Identifier
2050, 1965-082JL
Orbit
LEO
Country
Flag of USUS
Related business
Manufacturer
Unknown
Mission
Spacecraft
Bus & Motor
Unknown
Mass
Unknown
Launch date (UTC)
1965-10-15 (60 years ago)
Launch vehicle
Unknown
Launch site
Air Force Eastern Test Range (AFETR)
Object type
Payload
Rocket body
Debris
Shape & HBR
Unknown
Radar Cross Section
Small (<0.1 m²)

Expand to show TLE details & history
Last TLE update: 1 day ago

TLE from 1 day ago
0 TITAN 3C TRANSTAGE DEB
1 02050U 65082JL  25260.41084585  .00001043  00000-0  23883-3 0  9993
2 02050  32.2660  22.3643 0083207 189.8450 170.0563 14.51164780118978
Epoch: 2025-09-17T09:51Z
TLE epoch observation values (Epoch: 2025-09-17T09:51:37.081Z)
Latitude
-0.00001°
Longitude
-122.1274°
Altitude
778.706 km
Speed
7.436 km/s
True Right ascension
01h 29m 27s
True Declination
0° 00' 00"
Sunlit
Object was in full shadow at epoch
Visualization orbit readout
Latitude
Unknown
Longitude
Unknown
Altitude
Unknown
Speed
Unknown
Apparent Right ascension
Unknown
Apparent Declination
Unknown
Sunlit
N/A
Visualization observer readout
Local Sidereal Time
09:47:11
Azimuth
Unknown
Elevation
Unknown
Doppler factor
Unknown
Orbital elements
Apogee altitude
784.511 km
Perigee altitude
666.298 km
Semi-major axis
7,103.541 km
Eccentricity
0.00832
Inclination
32.266°
RAAN
22.3643°
Arg. of periapsis
189.845°
True anomaly
170.21928°
Mean anomaly
170.0563°
Eccentric anomaly
170.13795°
Mean motion
3.62519 °/min
Orbital period
99.31 mins
BSTAR
0.00023883
Loading maneuver chart data...
Computing Atmospheric mass density...

Documentation

Showing up to 5 results
|